Location: Brompton
(51.4000°N, 0.5333°E)
Time: 05:37:30
(UTC+00:00)

USA 215 - Pass Details

Date: 02 October 2021
Orbit: 1093 x 1114 km, 123.0° (Epoch: 14 October)

Event Time Altitude Azimuth Distance (km) Brightness Sun altitude
Exits shadow 19:20:10 26° 106° (ESE) 2,004 4.0 -17.4°
Maximum altitude 19:24:07 78° 24° (NNE) 1,127 3.3 -18.0°
Drops below altitude 10° 19:30:40 10° 299° (WNW) 2,971 6.7 -19.0°
Sets 19:33:10 0° 298° (WNW) 3,933 7.7 -19.3°
